• In Netherlands
  • List of Countries
  • For 7 days
  • Water Temperature
  • Satellite Maps
  • Weather Map
  • Weather Widgets
  • user-avatar
    Login

    Hourly Weather San Luis

    Today, 29 June, Thursday

    Time Temperature Precipitation Wind Pressure Humidity
    00:00 +8°C° 0 mm 3 mps 701 mmHg 72%
    01:00 +7°C° 0 mm 4 mps 701 mmHg 73%
    02:00 +7°C° 0 mm 4 mps 700 mmHg 74%
    03:00 +7°C° 0 mm 4 mps 700 mmHg 75%
    04:00 +7°C° 0 mm 4 mps 700 mmHg 76%
    05:00 +6°C° 0 mm 4 mps 700 mmHg 77%
    06:00 +6°C° 0 mm 4 mps 700 mmHg 77%
    07:00 +6°C° 0 mm 4 mps 700 mmHg 77%
    08:00 +6°C° 0 mm 4 mps 701 mmHg 77%
    09:00 +10°C° 0 mm 4 mps 701 mmHg 66%
    10:00 +12°C° 0 mm 4 mps 702 mmHg 56%
    11:00 +15°C° 0 mm 5 mps 702 mmHg 46%
    12:00 +17°C° 0 mm 4 mps 702 mmHg 41%
    13:00 +18°C° 0 mm 4 mps 701 mmHg 36%
    14:00 +18°C° 0 mm 4 mps 701 mmHg 31%
    15:00 +17°C° 0 mm 3 mps 701 mmHg 35%
    16:00 +16°C° 0 mm 3 mps 700 mmHg 40%
    17:00 +15°C° 0 mm 2 mps 700 mmHg 44%
    18:00 +14°C° 0 mm 2 mps 700 mmHg 49%
    19:00 +12°C° 0 mm 2 mps 700 mmHg 53%
    20:00 +11°C° 0 mm 1 mps 700 mmHg 58%
    21:00 +11°C° 0 mm 1 mps 701 mmHg 59%
    22:00 +10°C° 0 mm 1 mps 701 mmHg 61%
    23:00 +10°C° 0 mm 1 mps 701 mmHg 62%

    Tomorrow, 30 June, Friday

    Time Temperature Precipitation Wind Pressure Humidity
    00:00 +9°C° 0 mm 1 mps 701 mmHg 62%
    01:00 +9°C° 0 mm 1 mps 701 mmHg 63%
    02:00 +9°C° 0 mm 1 mps 701 mmHg 63%
    03:00 +9°C° 0 mm 1 mps 702 mmHg 62%
    04:00 +9°C° 0 mm 1 mps 702 mmHg 61%
    05:00 +8°C° 0 mm 2 mps 702 mmHg 60%
    06:00 +8°C° 0 mm 2 mps 703 mmHg 61%
    07:00 +7°C° 0 mm 2 mps 704 mmHg 62%
    08:00 +7°C° 0 mm 2 mps 704 mmHg 63%
    09:00 +9°C° 0 mm 3 mps 705 mmHg 56%
    10:00 +11°C° 0 mm 3 mps 706 mmHg 49%
    11:00 +14°C° 0 mm 4 mps 706 mmHg 42%
    12:00 +16°C° 0 mm 3 mps 706 mmHg 38%
    13:00 +17°C° 0 mm 2 mps 706 mmHg 34%
    14:00 +18°C° 0 mm 2 mps 705 mmHg 30%
    15:00 +17°C° 0 mm 2 mps 705 mmHg 35%
    16:00 +16°C° 0 mm 1 mps 704 mmHg 40%
    17:00 +15°C° 0 mm 1 mps 704 mmHg 45%
    18:00 +14°C° 0 mm 1 mps 704 mmHg 48%
    19:00 +13°C° 0 mm 2 mps 704 mmHg 51%
    20:00 +10°C° 0 mm 2 mps 704 mmHg 53%
    21:00 +10°C° 0 mm 2 mps 705 mmHg 54%
    22:00 +10°C° 0 mm 2 mps 705 mmHg 54%
    23:00 +9°C° 0 mm 2 mps 705 mmHg 54%

    Day after tomorrow, 1 July, Saturday

    Time Temperature Precipitation Wind Pressure Humidity
    00:00 +9°C° 0 mm 2 mps 705 mmHg 54%
    01:00 +9°C° 0 mm 2 mps 705 mmHg 54%
    02:00 +9°C° 0 mm 3 mps 705 mmHg 53%
    03:00 +9°C° 0 mm 3 mps 704 mmHg 56%
    04:00 +8°C° 0 mm 3 mps 704 mmHg 58%
    05:00 +8°C° 0 mm 3 mps 704 mmHg 61%
    06:00 +8°C° 0 mm 3 mps 704 mmHg 62%
    07:00 +8°C° 0 mm 3 mps 704 mmHg 64%
    08:00 +8°C° 0 mm 3 mps 705 mmHg 65%
    09:00 +11°C° 0 mm 4 mps 705 mmHg 57%
    10:00 +13°C° 0 mm 5 mps 705 mmHg 49%
    11:00 +16°C° 0 mm 6 mps 706 mmHg 41%
    12:00 +17°C° 0 mm 6 mps 705 mmHg 38%
    13:00 +19°C° 0 mm 6 mps 704 mmHg 36%
    14:00 +18°C° 0 mm 7 mps 704 mmHg 33%
    15:00 +17°C° 0 mm 6 mps 703 mmHg 36%
    16:00 +16°C° 0 mm 5 mps 703 mmHg 40%
    17:00 +15°C° 0 mm 5 mps 702 mmHg 43%
    18:00 +14°C° 0 mm 5 mps 702 mmHg 47%
    19:00 +13°C° 0 mm 5 mps 702 mmHg 50%
    20:00 +12°C° 0 mm 5 mps 702 mmHg 54%
    21:00 +11°C° 0 mm 6 mps 702 mmHg 55%
    22:00 +11°C° 0 mm 7 mps 703 mmHg 56%
    23:00 +11°C° 0 mm 8 mps 703 mmHg 56%

    2 July, Sunday

    Time Temperature Precipitation Wind Pressure Humidity
    00:00 +11°C° 0 mm 8 mps 702 mmHg 57%
    01:00 +10°C° 0 mm 8 mps 702 mmHg 58%
    02:00 +10°C° 0 mm 8 mps 702 mmHg 59%
    03:00 +10°C° 0 mm 8 mps 702 mmHg 61%
    04:00 +10°C° 0 mm 8 mps 702 mmHg 63%
    05:00 +10°C° 0 mm 8 mps 702 mmHg 65%
    06:00 +10°C° 0 mm 8 mps 702 mmHg 67%
    07:00 +10°C° 0 mm 8 mps 702 mmHg 69%
    08:00 +10°C° 0 mm 8 mps 702 mmHg 72%
    09:00 +12°C° 0 mm 9 mps 703 mmHg 65%
    10:00 +15°C° 0 mm 9 mps 703 mmHg 59%
    11:00 +16°C° 0 mm 10 mps 703 mmHg 52%
    12:00 +17°C° 0 mm 10 mps 703 mmHg 49%
    13:00 +18°C° 0 mm 10 mps 702 mmHg 46%
    14:00 +19°C° 0 mm 10 mps 702 mmHg 42%
    15:00 +18°C° 0 mm 9 mps 701 mmHg 46%
    16:00 +17°C° 0 mm 9 mps 701 mmHg 49%
    17:00 +16°C° 0 mm 8 mps 700 mmHg 53%
    18:00 +15°C° 0 mm 9 mps 700 mmHg 56%
    19:00 +15°C° 0 mm 9 mps 700 mmHg 60%
    20:00 +13°C° 0 mm 9 mps 700 mmHg 64%
    21:00 +13°C° 0 mm 10 mps 700 mmHg 65%
    22:00 +13°C° 0 mm 10 mps 700 mmHg 67%
    23:00 +13°C° 0 mm 10 mps 700 mmHg 69%

    3 July, Monday

    Time Temperature Precipitation Wind Pressure Humidity
    00:00 +13°C° 0 mm 11 mps 700 mmHg 70%
    01:00 +13°C° 0 mm 11 mps 699 mmHg 70%
    02:00 +13°C° 0 mm 11 mps 699 mmHg 70%
    03:00 +13°C° 0 mm 11 mps 698 mmHg 70%
    04:00 +13°C° 0 mm 11 mps 698 mmHg 70%
    05:00 +13°C° 0 mm 11 mps 697 mmHg 70%
    06:00 +13°C° 0 mm 11 mps 697 mmHg 69%
    07:00 +13°C° 0 mm 11 mps 697 mmHg 68%
    08:00 +13°C° 0 mm 11 mps 697 mmHg 67%
    09:00 +15°C° 0 mm 12 mps 697 mmHg 60%
    10:00 +18°C° 0 mm 13 mps 697 mmHg 54%
    11:00 +19°C° 0 mm 14 mps 698 mmHg 47%
    12:00 +20°C° 0 mm 14 mps 697 mmHg 45%
    13:00 +22°C° 0 mm 14 mps 696 mmHg 43%
    14:00 +23°C° 0 mm 15 mps 695 mmHg 41%
    15:00 +22°C° 0 mm 13 mps 695 mmHg 44%
    16:00 +21°C° 0 mm 12 mps 695 mmHg 47%
    17:00 +19°C° 0 mm 11 mps 695 mmHg 50%
    18:00 +18°C° 0 mm 10 mps 695 mmHg 54%
    19:00 +17°C° 0 mm 9 mps 695 mmHg 58%
    20:00 +17°C° 0 mm 9 mps 695 mmHg 62%
    21:00 +16°C° 0 mm 9 mps 696 mmHg 64%
    22:00 +16°C° 0 mm 9 mps 696 mmHg 65%
    23:00 +16°C° 0 mm 9 mps 696 mmHg 67%

    4 July, Tuesday

    Time Temperature Precipitation Wind Pressure Humidity
    00:00 +15°C° 0 mm 8 mps 696 mmHg 69%
    01:00 +15°C° 0 mm 8 mps 696 mmHg 70%
    02:00 +13°C° 0 mm 8 mps 696 mmHg 72%
    03:00 +14°C° 0 mm 7 mps 696 mmHg 74%
    04:00 +14°C° 0 mm 7 mps 696 mmHg 75%
    05:00 +12°C° 0 mm 7 mps 696 mmHg 76%
    06:00 +13°C° 0 mm 6 mps 696 mmHg 78%
    07:00 +13°C° 0 mm 5 mps 697 mmHg 80%
    08:00 +13°C° 0 mm 4 mps 697 mmHg 82%
    09:00 +14°C° 0 mm 4 mps 698 mmHg 79%
    10:00 +14°C° 0 mm 4 mps 698 mmHg 76%
    11:00 +15°C° 0 mm 5 mps 699 mmHg 73%
    12:00 +16°C° 0.1 mm 5 mps 698 mmHg 72%
    13:00 +16°C° 0.1 mm 5 mps 698 mmHg 70%
    14:00 +16°C° 0.1 mm 5 mps 698 mmHg 69%
    15:00 +17°C° 0.2 mm 4 mps 698 mmHg 72%
    16:00 +15°C° 0.2 mm 4 mps 698 mmHg 75%
    17:00 +14°C° 0.2 mm 4 mps 699 mmHg 78%
    18:00 +14°C° 0.1 mm 4 mps 699 mmHg 81%
    19:00 +13°C° 0.1 mm 3 mps 699 mmHg 85%
    20:00 +12°C° 0.1 mm 3 mps 700 mmHg 88%
    21:00 +12°C° 0.1 mm 3 mps 700 mmHg 89%
    22:00 +12°C° 0.1 mm 3 mps 700 mmHg 90%
    23:00 +12°C° 0.1 mm 3 mps 701 mmHg 90%
    Show more